Time,TemperatureF,DewpointF,PressureIn,WindDirection,WindDirectionDegrees,WindSpeedMPH,WindSpeedGustMPH,Humidity,HourlyPrecipIn,Conditions,Clouds,dailyrainin,SoftwareType,DateUTC
2013-04-06 00:03:00,34.5,29.3,29.65,ESE,112,5.8,-999.0,81,-99.99,,,0.00,Acu-Link.com,2013-04-06 05:03:00,
2013-04-06 00:19:00,34.7,29.5,29.65,ESE,112,6.3,-999.0,81,-99.99,,,0.00,Acu-Link.com,2013-04-06 05:19:00,
2013-04-06 00:34:00,35.1,29.6,29.63,East,90,8.3,-999.0,80,-99.99,,,0.00,Acu-Link.com,2013-04-06 05:34:00,
2013-04-06 00:49:00,35.4,29.5,29.63,SE,135,6.3,-999.0,79,-99.99,,,0.00,Acu-Link.com,2013-04-06 05:49:00,
2013-04-06 01:05:00,35.6,29.4,29.62,NW,315,3.7,-999.0,78,-99.99,,,0.00,Acu-Link.com,2013-04-06 06:05:00,
2013-04-06 01:20:00,35.8,29.6,29.61,NE,45,7.8,-999.0,78,-99.99,,,0.00,Acu-Link.com,2013-04-06 06:20:00,
2013-04-06 01:35:00,36.0,29.5,29.61,ESE,112,4.7,-999.0,77,-99.99,,,0.00,Acu-Link.com,2013-04-06 06:35:00,
2013-04-06 01:50:00,36.1,29.6,29.60,ESE,112,5.3,-999.0,77,-99.99,,,0.00,Acu-Link.com,2013-04-06 06:50:00,
2013-04-06 02:05:00,36.0,29.5,29.59,ENE,67,5.8,-999.0,77,-99.99,,,0.00,Acu-Link.com,2013-04-06 07:05:00,
2013-04-06 02:21:00,36.0,29.5,29.58,South,180,4.2,-999.0,77,-99.99,,,0.00,Acu-Link.com,2013-04-06 07:21:00,
2013-04-06 03:08:00,35.8,29.6,29.56,East,90,5.3,-999.0,78,-99.99,,,0.00,Acu-Link.com,2013-04-06 08:08:00,
2013-04-06 03:23:00,36.0,29.8,29.55,East,90,2.2,-999.0,78,-99.99,,,0.00,Acu-Link.com,2013-04-06 08:23:00,
2013-04-06 03:38:00,36.9,29.7,29.54,SE,135,2.7,-999.0,75,-99.99,,,0.00,Acu-Link.com,2013-04-06 08:38:00,
2013-04-06 03:53:00,36.9,29.7,29.53,ESE,112,5.8,-999.0,75,-99.99,,,0.00,Acu-Link.com,2013-04-06 08:53:00,
2013-04-06 04:39:00,36.3,29.8,29.49,ENE,67,6.8,-999.0,77,-99.99,,,0.00,Acu-Link.com,2013-04-06 09:39:00,
2013-04-06 04:54:00,36.9,30.1,29.50,East,90,4.2,-999.0,76,-99.99,,,0.00,Acu-Link.com,2013-04-06 09:54:00,
2013-04-06 05:09:00,37.6,30.4,29.49,East,90,2.2,-999.0,75,-99.99,,,0.00,Acu-Link.com,2013-04-06 10:09:00,
2013-04-06 05:24:00,37.4,30.2,29.49,ESE,112,5.3,-999.0,75,-99.99,,,0.00,Acu-Link.com,2013-04-06 10:24:00,
2013-04-06 05:40:00,37.4,30.2,29.48,ESE,112,5.3,-999.0,75,-99.99,,,0.00,Acu-Link.com,2013-04-06 10:40:00,
2013-04-06 05:55:00,37.2,30.3,29.48,ESE,112,2.7,-999.0,76,-99.99,,,0.00,Acu-Link.com,2013-04-06 10:55:00,
2013-04-06 06:10:00,37.6,30.7,29.47,SSW,202,4.7,-999.0,76,-99.99,,,0.00,Acu-Link.com,2013-04-06 11:10:00,
2013-04-06 06:25:00,37.8,30.9,29.45,ENE,67,6.8,-999.0,76,-99.99,,,0.00,Acu-Link.com,2013-04-06 11:25:00,
2013-04-06 06:40:00,37.8,30.9,29.45,NNE,22,2.7,-999.0,76,-99.99,,,0.00,Acu-Link.com,2013-04-06 11:40:00,
2013-04-06 06:56:00,37.6,31.1,29.45,SE,135,4.7,-999.0,77,-99.99,,,0.00,Acu-Link.com,2013-04-06 11:56:00,
2013-04-06 07:11:00,37.8,31.6,29.45,East,90,5.3,-999.0,78,-99.99,,,0.00,Acu-Link.com,2013-04-06 12:11:00,
2013-04-06 07:26:00,37.9,31.7,29.44,East,90,2.7,-999.0,78,-99.99,,,0.00,Acu-Link.com,2013-04-06 12:26:00,
2013-04-06 07:56:00,38.1,31.9,29.43,ESE,112,5.3,-999.0,78,-99.99,,,0.00,Acu-Link.com,2013-04-06 12:56:00,
2013-04-06 08:12:00,38.5,32.2,29.42,East,90,3.7,-999.0,78,-99.99,,,0.00,Acu-Link.com,2013-04-06 13:12:00,
2013-04-06 08:27:00,38.8,32.2,29.42,West,270,2.7,-999.0,77,-99.99,,,0.00,Acu-Link.com,2013-04-06 13:27:00,
2013-04-06 08:42:00,39.6,32.7,29.42,ESE,112,3.2,-999.0,76,-99.99,,,0.00,Acu-Link.com,2013-04-06 13:42:00,
2013-04-06 09:13:00,40.1,32.8,29.41,ESE,112,5.3,-999.0,75,-99.99,,,0.00,Acu-Link.com,2013-04-06 14:13:00,
2013-04-06 09:28:00,40.5,33.2,29.40,NE,45,4.7,-999.0,75,-99.99,,,0.00,Acu-Link.com,2013-04-06 14:28:00,
2013-04-06 09:43:00,41.0,33.4,29.39,ESE,112,5.3,-999.0,74,-99.99,,,0.00,Acu-Link.com,2013-04-06 14:43:00,
2013-04-06 09:58:00,41.9,33.9,29.38,ESE,112,4.2,-999.0,73,-99.99,,,0.00,Acu-Link.com,2013-04-06 14:58:00,
2013-04-06 10:29:00,42.1,34.1,29.39,South,180,1.1,-999.0,73,-99.99,,,0.00,Acu-Link.com,2013-04-06 15:29:00,
2013-04-06 10:44:00,43.2,34.4,29.40,NE,45,1.7,-999.0,71,-99.99,,,0.00,Acu-Link.com,2013-04-06 15:44:00,
2013-04-06 10:59:00,44.8,35.6,29.39,NNE,22,1.7,-999.0,70,-99.99,,,0.00,Acu-Link.com,2013-04-06 15:59:00,
2013-04-06 11:14:00,46.6,35.9,29.41,South,180,2.2,-999.0,66,-99.99,,,0.00,Acu-Link.com,2013-04-06 16:14:00,
2013-04-06 11:30:00,47.5,37.5,29.41,SE,135,2.2,-999.0,68,-99.99,,,0.00,Acu-Link.com,2013-04-06 16:30:00,
2013-04-06 11:45:00,46.2,36.2,29.41,ENE,67,2.2,-999.0,68,-99.99,,,0.00,Acu-Link.com,2013-04-06 16:45:00,
2013-04-06 12:00:00,48.9,37.3,29.42,East,90,2.7,-999.0,64,-99.99,,,0.00,Acu-Link.com,2013-04-06 17:00:00,
2013-04-06 12:15:00,50.7,37.3,29.42,West,270,0.0,-999.0,60,-99.99,,,0.00,Acu-Link.com,2013-04-06 17:15:00,
2013-04-06 12:31:00,49.6,37.1,29.42,NW,315,0.0,-999.0,62,-99.99,,,0.00,Acu-Link.com,2013-04-06 17:31:00,
2013-04-06 12:46:00,48.2,36.6,29.42,NNW,337,2.7,-999.0,64,-99.99,,,0.00,Acu-Link.com,2013-04-06 17:46:00,
2013-04-06 13:01:00,46.9,36.5,29.41,North,0,2.2,-999.0,67,-99.99,,,0.00,Acu-Link.com,2013-04-06 18:01:00,
2013-04-06 13:16:00,45.5,36.3,29.42,WNW,292,2.2,-999.0,70,-99.99,,,0.00,Acu-Link.com,2013-04-06 18:16:00,
2013-04-06 13:31:00,45.0,35.8,29.42,WNW,292,2.2,-999.0,70,-99.99,,,0.00,Acu-Link.com,2013-04-06 18:31:00,
2013-04-06 14:08:00,45.1,35.9,29.42,WNW,292,4.2,-999.0,70,-99.99,,,0.00,Acu-Link.com,2013-04-06 19:08:00,
2013-04-06 14:23:00,44.1,34.6,29.43,WNW,292,3.7,-999.0,69,-99.99,,,0.00,Acu-Link.com,2013-04-06 19:23:00,
2013-04-06 14:38:00,43.7,34.9,29.43,East,90,3.7,-999.0,71,-99.99,,,0.00,Acu-Link.com,2013-04-06 19:38:00,
2013-04-06 14:53:00,43.3,34.9,29.44,North,0,4.2,-999.0,72,-99.99,,,0.00,Acu-Link.com,2013-04-06 19:53:00,
2013-04-06 15:08:00,44.1,35.3,29.44,NW,315,3.2,-999.0,71,-99.99,,,0.00,Acu-Link.com,2013-04-06 20:08:00,
2013-04-06 15:39:00,45.5,35.6,29.45,WNW,292,2.7,-999.0,68,-99.99,,,0.00,Acu-Link.com,2013-04-06 20:39:00,
2013-04-06 15:54:00,43.9,34.8,29.45,NNW,337,2.7,-999.0,70,-99.99,,,0.00,Acu-Link.com,2013-04-06 20:54:00,
2013-04-06 16:09:00,44.1,34.6,29.47,North,0,3.7,-999.0,69,-99.99,,,0.00,Acu-Link.com,2013-04-06 21:09:00,
2013-04-06 16:24:00,43.7,34.2,29.47,ESE,112,2.7,-999.0,69,-99.99,,,0.00,Acu-Link.com,2013-04-06 21:24:00,
2013-04-06 16:40:00,43.9,34.8,29.47,West,270,3.2,-999.0,70,-99.99,,,0.00,Acu-Link.com,2013-04-06 21:40:00,
2013-04-06 16:55:00,43.2,34.1,29.48,ESE,112,2.7,-999.0,70,-99.99,,,0.00,Acu-Link.com,2013-04-06 21:55:00,
2013-04-06 17:10:00,43.9,34.4,29.48,NW,315,5.8,-999.0,69,-99.99,,,0.00,Acu-Link.com,2013-04-06 22:10:00,
2013-04-06 17:25:00,43.3,34.2,29.50,South,180,3.7,-999.0,70,-99.99,,,0.00,Acu-Link.com,2013-04-06 22:25:00,
2013-04-06 17:41:00,42.8,34.1,29.51,East,90,6.8,-999.0,71,-99.99,,,0.00,Acu-Link.com,2013-04-06 22:41:00,
2013-04-06 18:11:00,41.7,33.4,29.53,West,270,4.7,-999.0,72,-99.99,,,0.00,Acu-Link.com,2013-04-06 23:11:00,
2013-04-06 18:26:00,41.4,33.1,29.54,West,270,5.3,-999.0,72,-99.99,,,0.00,Acu-Link.com,2013-04-06 23:26:00,
2013-04-06 18:41:00,40.6,32.6,29.54,WNW,292,3.2,-999.0,73,-99.99,,,0.00,Acu-Link.com,2013-04-06 23:41:00,
2013-04-06 18:57:00,39.9,33.0,29.55,East,90,2.7,-999.0,76,-99.99,,,0.00,Acu-Link.com,2013-04-06 23:57:00,
2013-04-06 19:12:00,39.0,32.4,29.56,South,180,1.7,-999.0,77,-99.99,,,0.00,Acu-Link.com,2013-04-07 00:12:00,
2013-04-06 19:42:00,37.4,31.8,29.56,SSW,202,4.2,-999.0,80,-99.99,,,0.00,Acu-Link.com,2013-04-07 00:42:00,
2013-04-06 19:57:00,36.9,31.6,29.57,NW,315,2.7,-999.0,81,-99.99,,,0.00,Acu-Link.com,2013-04-07 00:57:00,
2013-04-06 20:13:00,36.3,31.3,29.57,NW,315,2.7,-999.0,82,-99.99,,,0.00,Acu-Link.com,2013-04-07 01:13:00,
2013-04-06 20:28:00,36.1,31.1,29.58,SSE,157,0.0,-999.0,82,-99.99,,,0.00,Acu-Link.com,2013-04-07 01:28:00,
2013-04-06 20:43:00,36.0,31.3,29.59,NW,315,2.7,-999.0,83,-99.99,,,0.00,Acu-Link.com,2013-04-07 01:43:00,
2013-04-06 20:58:00,36.0,31.3,29.60,NE,45,4.2,-999.0,83,-99.99,,,0.00,Acu-Link.com,2013-04-07 01:58:00,
2013-04-06 21:44:00,35.6,31.0,29.61,NE,45,3.7,-999.0,83,-99.99,,,0.00,Acu-Link.com,2013-04-07 02:44:00,
2013-04-06 21:59:00,35.4,30.8,29.61,NE,45,2.7,-999.0,83,-99.99,,,0.00,Acu-Link.com,2013-04-07 02:59:00,
2013-04-06 22:14:00,35.2,30.6,29.62,ENE,67,2.7,-999.0,83,-99.99,,,0.00,Acu-Link.com,2013-04-07 03:14:00,
2013-04-06 22:45:00,34.7,30.4,29.63,West,270,4.2,-999.0,84,-99.99,,,0.00,Acu-Link.com,2013-04-07 03:45:00,
2013-04-06 23:00:00,34.7,30.4,29.63,SW,225,2.2,-999.0,84,-99.99,,,0.00,Acu-Link.com,2013-04-07 04:00:00,
2013-04-06 23:15:00,34.5,30.2,29.64,West,270,3.7,-999.0,84,-99.99,,,0.00,Acu-Link.com,2013-04-07 04:15:00,
2013-04-06 23:30:00,34.3,30.3,29.64,SSW,202,2.7,-999.0,85,-99.99,,,0.00,Acu-Link.com,2013-04-07 04:30:00,
2013-04-06 23:45:00,34.0,30.0,29.65,North,0,2.2,-999.0,85,-99.99,,,0.00,Acu-Link.com,2013-04-07 04:45:00,